カタログに戻る

FENGYUN 1C DEB

運用中SSO
NORAD 31467·DEBRIS·🇨🇳 China

打ち上げ May 10, 1999 から Taiyuan Satellite Launch Center

Loading…

次のパス (今後24時間)

TLE

最新Source: Space-Track

元期: Sep 14, 2026, 09:19 UTC

1 31467U 99025BVF 26257.38873025  .00002047  00000-0  12540-2 0  9991
2 31467  98.5802 114.1092 0152238 310.8050  47.9993 14.01293934 36063

AllMySatでFENGYUN 1C DEBをリアルタイム追跡

Download on the App Store